Torna al catalogo

FENGYUN 1C DEB

LostSSO
NORAD 38825·DEBRIS·🇨🇳 China

Lanciato May 10, 1999 da Taiyuan Satellite Launch Center

Loading…

Prossimi Passaggi (prossime 24 ore)

TLE

ObsoletoSource: Space-Track

Epoca: Aug 31, 2022, 11:36 UTC

1 38825U 99025EVR 22243.48333715  .00000524  00000-0  46288-3 0  9990
2 38825  99.0212 330.7583 0223916 103.8969 320.3606 13.78353512577916

Traccia FENGYUN 1C DEB in tempo reale con AllMySat

Download on the App Store